星链-31095 (STARLINK-31095 )

导读 | 星芒AI

STARLINK-31095 是 SpaceX Starlink 卫星互联网项目中的一颗低轨卫星,属于第二代 Starlink 卫星星座的一部分。该卫星由 SpaceX 研发并发射,旨在为全球用户提供高速、低延迟的宽带互联网服务。它运行在约 550 公里的轨道高度,配备先进通信设备和可展开的太阳能电池板。Starlink 项目致力于构建覆盖全球的卫星网络,尤其服务于偏远和网络基础设施薄弱的地区。STARLINK-31095 的部署有助于提升网络容量和连接稳定性,推动全球互联网普及。

基本信息
目录编号:
58683
目录名称:
STARLINK-31095
国际标识:
2023-211S
轨道中心:
EARTH
卫星名称:
星链-31095
卫星全名:
星链-31095 (STARLINK-31095 )
卫星状态:
在轨 (已飞行721 天)
发射日期:
2023-12-29 UTC
国别 :
美国 (US)
星等 :
--
轨道信息
数据来源 国际轨道数据 AOE轨道数据
星历时间 2025-12-19T05:20:15+0800
1天前
查看轨道信息
2025-12-17T14:00:00+0800
2天前
查看轨道信息
半长轴 6861.179km 6861.157km
偏心率 0.000118 0.0001451
轨道倾角 43.001° 43.000°
近地点辐角 270.610° 296.703°
升交点赤经 181.899° 191.157°
平近点角 89.462° 39.107°
近地点 482.234km 482.026km
远地点 483.854km 484.018km
周期 94.267分钟 94.266分钟
每日圈数 15.275824 15.275899
详细信息
固有亮度:
5
最大亮度:
0.3
卫星平台:
Starlink v2.0 mini
覆盖范围:
全球
运营商:
太空探索技术公司
运营商所在国:
美国
制造商(研发单位):
太空探索技术公司
制造商所在国:
美国
使用方式:
暂无
卫星简介
星链(Starlink)计划是由太空探索技术公司(SpaceX)提出的一个巨型低轨卫星互联网星座项目,计划在2019年至2024年间在太空搭建由约1.2万颗卫星组成的“星链”网络,其中1584颗将部署在地球上空550千米处的近地轨道,并从2020年开始工作。该卫星仍在工作。
2D轨道图
3D轨道图
轨道高度分析图
轨道倾角分析图
轨道综合分析图
查看轨道综合分析图